Location: ??????????
(44.2167°N, 135.5333°E)
Time: 15:12:30
(UTC+00:00)

Cosmos 1300 Rocket - Pass Details

Date: 15 June 2025
Orbit: 597 x 619 km, 82.5° (Epoch: 15 July)

Event Time Altitude Azimuth Distance (km) Brightness Sun altitude
Rises 14:45:37 0° 354° (N) 2,901 8.5 -22.4°
Reaches altitude 10° 14:47:52 10° 357° (N) 1,992 7.3 -22.4°
Maximum altitude 14:52:16 66° 80° (E) 678 3.7 -22.4°
Enters shadow 14:52:48 59° 122° (ESE) 716 3.6 -22.4°
